Location: Newark
(48.1500°N, 13.1167°E)
Time: 04:51:31
(UTC+00:00)

ISS - Pass Details

Date: 20 September 2021
Orbit: 417 x 423 km, 51.6° (Epoch: 20 October)

Event Time Altitude Azimuth Distance (km) Brightness Sun altitude
Rises 18:46:41 0° 252° (WSW) 2,358 0.9 -16.7°
Reaches altitude 10° 18:48:47 10° 255° (WSW) 1,497 -0.2 -17.0°
Maximum altitude 18:52:08 74° 340° (NNW) 441 -3.6 -17.5°
Enters shadow 18:53:14 40° 56° (NE) 640 -3.1 -17.7°
